Regional Weather Roundup
Issued by NWS

Home | Current Version | Previous Version | Graphics & Text | Print | Product List | Glossary On
Versions: 1 2 3 4 5 6 7 8 9 10 11 12 13 14 15 16 17 18 19 20 21 22 23 24 25 26 27 28 29 30 31 32 33 34 35 36 37 38 39 40 41 42 43 44 45 46 47 48 49 50
000
ASUS43 KMPX 220001
RWRMN
WEATHER ROUNDUP FOR MINNESOTA
NATIONAL WEATHER SERVICE TWIN CITIES/CHANHASSEN MN
700 PM CDT SAT OCT 21 2017


NOTE: "FAIR" INDICATES FEW OR NO CLOUDS BELOW 12,000 FEET WITH NO
SIGNIFICANT WEATHER AND/OR OBSTRUCTIONS TO VISIBILITY. N/A MEANS
CURRENT SKY AND/OR WEATHER CONDITIONS ARE NOT AVAILABLE.

MNZ060>063-068>070-220100-
   Twin Cities Metro

CITY           SKY/WX    TMP DP  RH WIND       PRES   REMARKS
TWIN CITIES    LGT RAIN  68  62  81 S13G22    29.68R
6HR MIN TEMP:  65; 6HR MAX TEMP:  69; 6HR PCP:  0.01;

ST PAUL        CLOUDY    67  61  81 S16G24    29.68R
CRYSTAL        LGT RAIN  67  58  72 S17G23    29.67R
BLAINE         LGT RAIN  68  63  83 S15G21    29.67R
LAKEVILLE      CLOUDY    66  61  82 S10G20    29.69R
EDEN PRAIRIE   CLOUDY    58  54  86 W15G22    29.71R
6HR MIN TEMP:  58; 6HR MAX TEMP:  70; 6HR PCP:  0.01;

SOUTH ST PAUL  CLOUDY    68  60  75 S15G23    29.68R
LAKE ELMO      CLOUDY    68  61  77 S15G22    29.70R
$$
MNZ001>005-007-008-013>017-022>024-027-028-220100-
   Northwest Minnesota

CITY           SKY/WX    TMP DP  RH WIND       PRES   REMARKS
BEMIDJI        CLOUDY    51  49  91 SW5       29.59R
HALLOCK        CLOUDY    55  43  62 W13       29.53R
ROSEAU         CLOUDY    57  46  67 W12G18    29.52R
WARROAD        CLOUDY    59  46  63 S5        29.51S
CROOKSTON      CLOUDY    55  43  62 W10       29.60R
FOSSTON        CLOUDY    52  45  76 W10       29.59S
DETROIT LAKES  PTCLDY    52  45  76 W9        29.65R
MOORHEAD       CLOUDY    54  43  66 W12       29.65S
PARK RAPIDS    CLOUDY    51  48  89 W8        29.61R
MAHNOMEN       FAIR      51  44  76 W12       29.62R
$$
MNZ006-009>011-018-025>026-220100-
   North Central Minnesota

CITY           SKY/WX    TMP DP  RH WIND       PRES   REMARKS
BAUDETTE       CLOUDY    55  52  89 SW7       29.53R
FLAG ISLAND    CLOUDY    54  48  82 S9        29.50R
INTL FALLS     CLOUDY    62  58  86 S8        29.55R
6HR MIN TEMP:  62; 6HR MAX TEMP:  64; 6HR PCP: TRACE;

WASKISH        DRIZZLE   54  54 100 SW6       29.56R
BIG FORK       LGT RAIN  63  61  94 S7        29.56S
LONGVILLE      TSTM      54  52  94 SW8       29.63R
GRAND RAPIDS   CLOUDY    62  60  93 S14       29.60R
CRANE LAKE     CLOUDY    59  57  94 S5        29.62R FOG
ORR            CLOUDY    61  57  88 S9        29.58R FOG
COOK           DRIZZLE   61  59  94 S8        29.62R
WALKER         CLOUDY    51  49  92 W5        29.60R
$$
MNZ012-019>021-037-220100-
   Northeast Minnesota

CITY           SKY/WX    TMP DP  RH WIND       PRES   REMARKS
DULUTH         CLOUDY    61  61 100 S14       29.67S
6HR MIN TEMP:  57; 6HR MAX TEMP:  61; 6HR PCP:  0.12;

ELY            CLOUDY    61  59  94 S10G26    29.65R
HIBBING        CLOUDY    61  59  93 S10       29.61R
EVELETH        CLOUDY    63  63  99 S12G24    29.64S
DULUTH HARBOR  CLOUDY    64  61  88 S14       29.66F
TWO HARBORS    CLOUDY    64  61  88 S7        29.67S
SILVER BAY     CLOUDY    61  59  94 CALM      29.68R
GRAND MARAIS     N/A     54  54 100 NE3       29.72R
G MARAIS ARPRT CLOUDY    57  54  88 S8        29.75R
$$
MNZ029>031-032-039>041-046>048-054>057-064-220100-
   West Central Minnesota

CITY           SKY/WX    TMP DP  RH WIND       PRES   REMARKS
FERGUS FALLS   CLOUDY    52  43  71 W12G18    29.68R
WHEATON        CLOUDY    52  39  62 W14       29.73R
MORRIS         CLOUDY    54  43  66 W12       29.71R
ALEXANDRIA     MOCLDY    52  44  74 W12       29.70R
ELBOW LAKE     FAIR      50  42  74 SW9       29.69S
WADENA         CLOUDY    52  46  82 W9        29.64R
GLENWOOD       MOCLDY    52  45  76 W8        29.71R
APPLETON       CLOUDY    54  41  62 W13       29.74R
BENSON         CLOUDY    55  43  62 NW12      29.73R
ORTONVILLE     CLOUDY    52  43  71 W9        29.75R
MADISON        CLOUDY    55  43  62 W13       29.76R
WILLMAR        MOCLDY    55  46  71 W12G18    29.75R
$$
MNZ033>034-036-042>043-049>051-058-059-220100-
   Central Minnesota

CITY           SKY/WX    TMP DP  RH WIND       PRES   REMARKS
ST CLOUD       CLOUDY    54  52  93 W10       29.69R
6HR MIN TEMP:  54; 6HR MAX TEMP:  66; 6HR PCP:  0.41;

SAUK CENTRE    CLOUDY    53  48  81 W10       29.70R
PAYNESVILLE    CLOUDY    55  50  83 W9        29.72R
AITKIN         TSTM      61  57  88 S12G22    29.60R
PINE RIVER     CLOUDY    50  46  87 W3        29.67R
BRAINERD       TSTM     N/A N/A N/A W8        29.65R
STAPLES        CLOUDY    50  48  93 SW5       29.66R
LONG PRAIRIE   DRIZZLE   52  46  82 SW9       29.68R
LITTLE FALLS   CLOUDY    54  45  71 W7        29.68R
LITCHFIELD     CLOUDY    55  52  88 W6        29.73R
BUFFALO        LGT RAIN  55  51  87 W9        29.72R
MAPLE LAKE     CLOUDY    56  53  89 W8G16     29.72R
HUTCHINSON     CLOUDY    56  53  88 W8        29.73R
$$
MNZ037-044-045-052-053-220100-
   East Central Minnesota

CITY           SKY/WX    TMP DP  RH WIND       PRES   REMARKS
PRINCETON      CLOUDY    63  57  82 SW13G21   29.67R
MORA           LGT RAIN  63  59  88 S10       29.66S
CAMBRIDGE      CLOUDY    68  61  77 SE9G17    29.65S
RUSH CITY      CLOUDY    64  59  83 SE10      29.66F
MOOSE LAKE     CLOUDY    63  59  88 S7        29.64S
HINCKLEY       CLOUDY    64  61  88 SE10G17   29.65F
CLOQUET        CLOUDY    63  59  88 S8G16     29.65F
MCGREGOR       CLOUDY    63  61  94 S14G22    29.62R THUNDER
$$
MNZ071>073-080-081-089-090-097-098-220100-
   Southwest Minnesota

CITY           SKY/WX    TMP DP  RH WIND       PRES   REMARKS
MONTEVIDEO     CLOUDY    55  43  62 NW7G16    29.76R
GRANITE FALLS  DRIZZLE   55  46  72 W7        29.78R
CANBY          CLOUDY    53  42  67 NW14G20   29.80R
MARSHALL       CLOUDY    54  42  64 NW14      29.79R
REDWOOD FALLS  CLOUDY    56  44  64 W13       29.75R
OLIVIA         CLOUDY    54  46  76 W12       29.74R
PIPESTONE      MOCLDY    50  39  66 W15G22    29.84R
WORTHINGTON    CLOUDY    52  43  71 W12       29.82R
JACKSON        CLOUDY    52  43  71 W14       29.80R
TRACY          CLOUDY    55  44  67 W7        29.80R
SLAYTON        CLOUDY    52  42  67 W16       29.81R
$$
MNZ065>067-074>077-082>085-091>093-220100-
   South Central Minnesota

CITY           SKY/WX    TMP DP  RH WIND       PRES   REMARKS
MANKATO        LGT RAIN  57  51  80 W12       29.76R
NEW ULM          N/A     55  48  76 W7        29.76R
ST JAMES       CLOUDY    57  46  67 W9        29.78R
FAIRMONT       CLOUDY    56  48  74 NW9       29.78R
GLENCOE        CLOUDY    56  56  97 W5        29.73R
FARIBAULT      LGT RAIN  64  61  88 W13G23    29.73R
OWATONNA       LGT RAIN  66  61  82 S16G24    29.72R
WASECA         DRIZZLE   55  52  88 W13G26    29.78R
$$
MNZ078>079-086>088-094>096-220100-
   Southeast Minnesota

CITY           SKY/WX    TMP DP  RH WIND       PRES   REMARKS
ROCHESTER      CLOUDY    66  59  78 S14       29.76R
6HR MIN TEMP:  64; 6HR MAX TEMP:  67;

RED WING       CLOUDY    70  55  60 S14       29.71S
STANTON        CLOUDY    68  60  74 S10G20    29.69R
DODGE CENTER   CLOUDY    64  57  77 S17       29.74R
WINONA         CLOUDY    70  59  68 SE8       29.77S
AUSTIN         CLOUDY    66  59  77 S10G18    29.74S
PRESTON        CLOUDY    67  58  72 S14       29.77F
$$
ABBREVIATIONS USED IN REMARKS
   TC - TEMPERATURES IN CELSIUS
  WCI - WIND CHILL INDEX
   HX - HEAT INDEX
  VSB - VISIBILITY
$$




USA.gov is the U.S. government's official web portal to all federal, state and local government web resources and services.